When you browse on this site, cookies collect data to enhance your experience and personalize the content and advertising you see.
Visit our Privacy Policy to learn more. By continuing to use the site, you agree to this use of cookies and data.
  • In Hungary
  • List of Countries
  • For 7 days
  • Water Temperature
  • Weather Map
  • News
  • Weather Widgets
  • user-avatar
    Login

    Hourly Weather Tuxtla Chico

    Today, 18 November, Monday

    Time Temperature Precipitation Wind Pressure Humidity
    00:00 +24°C° 0 mm 1 mps 727 mmHg 80%
    01:00 +24°C° 0 mm 1 mps 727 mmHg 78%
    02:00 +24°C° 0 mm 1 mps 727 mmHg 76%
    03:00 +24°C° 0 mm 1 mps 727 mmHg 74%
    04:00 +24°C° 0 mm 1 mps 727 mmHg 73%
    05:00 +24°C° 0 mm 1 mps 727 mmHg 71%
    06:00 +24°C° 0 mm 1 mps 727 mmHg 69%
    07:00 +25°C° 0 mm 1 mps 728 mmHg 66%
    08:00 +27°C° 0 mm 1 mps 729 mmHg 64%
    09:00 +29°C° 0 mm 1 mps 729 mmHg 61%
    10:00 +30°C° 0 mm 1 mps 729 mmHg 61%
    11:00 +31°C° 0 mm 2 mps 728 mmHg 62%
    12:00 +31°C° 0 mm 2 mps 728 mmHg 62%
    13:00 +30°C° 0.2 mm 2 mps 727 mmHg 68%
    14:00 +30°C° 0.2 mm 2 mps 726 mmHg 74%
    15:00 +29°C° 0.2 mm 2 mps 726 mmHg 81%
    16:00 +28°C° 0.5 mm 1 mps 726 mmHg 84%
    17:00 +27°C° 0.5 mm 1 mps 726 mmHg 88%
    18:00 +24°C° 0.5 mm 0 mps 727 mmHg 91%
    19:00 +23°C° 0.3 mm 0 mps 727 mmHg 91%
    20:00 +25°C° 0.3 mm 1 mps 728 mmHg 91%
    21:00 +24°C° 0.3 mm 1 mps 729 mmHg 91%
    22:00 +24°C° 0.4 mm 1 mps 729 mmHg 91%
    23:00 +24°C° 0.4 mm 1 mps 729 mmHg 91%

    Tomorrow, 19 November, Tuesday

    Time Temperature Precipitation Wind Pressure Humidity
    00:00 +24°C° 0.4 mm 1 mps 729 mmHg 90%
    01:00 +24°C° 0 mm 1 mps 728 mmHg 91%
    02:00 +24°C° 0 mm 1 mps 728 mmHg 91%
    03:00 +24°C° 0 mm 1 mps 728 mmHg 91%
    04:00 +23°C° 0 mm 1 mps 728 mmHg 90%
    05:00 +23°C° 0 mm 1 mps 728 mmHg 88%
    06:00 +23°C° 0 mm 1 mps 728 mmHg 87%
    07:00 +25°C° 0 mm 1 mps 729 mmHg 81%
    08:00 +27°C° 0 mm 1 mps 729 mmHg 75%
    09:00 +29°C° 0 mm 1 mps 730 mmHg 69%
    10:00 +29°C° 0 mm 1 mps 729 mmHg 68%
    11:00 +30°C° 0 mm 2 mps 729 mmHg 67%
    12:00 +30°C° 0 mm 2 mps 728 mmHg 66%
    13:00 +30°C° 0.8 mm 2 mps 728 mmHg 73%
    14:00 +29°C° 0.8 mm 2 mps 727 mmHg 79%
    15:00 +28°C° 0.8 mm 1 mps 727 mmHg 85%
    16:00 +27°C° 1.2 mm 1 mps 727 mmHg 87%
    17:00 +24°C° 1.2 mm 0 mps 728 mmHg 90%
    18:00 +23°C° 1.2 mm 0 mps 728 mmHg 92%
    19:00 +23°C° 0.3 mm 0 mps 729 mmHg 92%
    20:00 +25°C° 0.3 mm 1 mps 729 mmHg 92%
    21:00 +25°C° 0.3 mm 1 mps 730 mmHg 91%
    22:00 +24°C° 0.1 mm 1 mps 730 mmHg 91%
    23:00 +24°C° 0.1 mm 1 mps 730 mmHg 90%

    Day after tomorrow, 20 November, Wednesday

    Time Temperature Precipitation Wind Pressure Humidity
    00:00 +24°C° 0.1 mm 1 mps 729 mmHg 90%
    01:00 +24°C° 0 mm 1 mps 729 mmHg 89%
    02:00 +24°C° 0 mm 1 mps 729 mmHg 89%
    03:00 +24°C° 0 mm 1 mps 729 mmHg 88%
    04:00 +23°C° 0 mm 1 mps 729 mmHg 87%
    05:00 +23°C° 0 mm 1 mps 729 mmHg 87%
    06:00 +23°C° 0 mm 1 mps 729 mmHg 86%
    07:00 +25°C° 0 mm 1 mps 729 mmHg 81%
    08:00 +27°C° 0 mm 1 mps 730 mmHg 76%
    09:00 +29°C° 0 mm 1 mps 731 mmHg 71%
    10:00 +29°C° 0.1 mm 1 mps 730 mmHg 72%
    11:00 +29°C° 0.1 mm 1 mps 730 mmHg 72%
    12:00 +30°C° 0.1 mm 2 mps 729 mmHg 73%
    13:00 +29°C° 1 mm 2 mps 728 mmHg 76%
    14:00 +29°C° 1 mm 1 mps 728 mmHg 80%
    15:00 +28°C° 1 mm 1 mps 727 mmHg 84%
    16:00 +27°C° 0.6 mm 1 mps 727 mmHg 86%
    17:00 +24°C° 0.6 mm 0 mps 728 mmHg 89%
    18:00 +23°C° 0.6 mm 0 mps 728 mmHg 92%
    19:00 +23°C° 0.1 mm 0 mps 729 mmHg 92%
    20:00 +23°C° 0.1 mm 0 mps 729 mmHg 93%
    21:00 +25°C° 0.1 mm 1 mps 730 mmHg 93%
    22:00 +25°C° 0 mm 1 mps 730 mmHg 92%
    23:00 +25°C° 0 mm 1 mps 730 mmHg 92%

    21 November, Thursday

    Time Temperature Precipitation Wind Pressure Humidity
    00:00 +25°C° 0 mm 1 mps 729 mmHg 91%
    01:00 +24°C° 0 mm 1 mps 729 mmHg 90%
    02:00 +24°C° 0 mm 1 mps 729 mmHg 89%
    03:00 +24°C° 0 mm 1 mps 729 mmHg 89%
    04:00 +24°C° 0 mm 1 mps 729 mmHg 88%
    05:00 +24°C° 0 mm 1 mps 729 mmHg 87%
    06:00 +24°C° 0 mm 1 mps 729 mmHg 87%
    07:00 +25°C° 0 mm 1 mps 729 mmHg 81%
    08:00 +27°C° 0 mm 1 mps 730 mmHg 76%
    09:00 +29°C° 0 mm 1 mps 730 mmHg 71%
    10:00 +29°C° 0 mm 1 mps 730 mmHg 69%
    11:00 +30°C° 0 mm 1 mps 729 mmHg 67%
    12:00 +31°C° 0 mm 2 mps 728 mmHg 65%
    13:00 +30°C° 0.1 mm 2 mps 728 mmHg 69%
    14:00 +30°C° 0.1 mm 2 mps 727 mmHg 73%
    15:00 +29°C° 0.1 mm 2 mps 727 mmHg 77%
    16:00 +28°C° 0.3 mm 1 mps 727 mmHg 82%
    17:00 +27°C° 0.3 mm 1 mps 727 mmHg 87%
    18:00 +24°C° 0.3 mm 0 mps 728 mmHg 92%
    19:00 +23°C° 0.4 mm 0 mps 728 mmHg 93%
    20:00 +25°C° 0.4 mm 1 mps 729 mmHg 93%
    21:00 +25°C° 0.4 mm 1 mps 729 mmHg 93%
    22:00 +25°C° 0 mm 1 mps 729 mmHg 93%
    23:00 +24°C° 0 mm 1 mps 729 mmHg 92%

    22 November, Friday

    Time Temperature Precipitation Wind Pressure Humidity
    00:00 +24°C° 0 mm 1 mps 729 mmHg 92%
    01:00 +24°C° 0 mm 1 mps 728 mmHg 91%
    02:00 +24°C° 0 mm 1 mps 728 mmHg 91%
    03:00 +24°C° 0 mm 1 mps 728 mmHg 90%
    04:00 +24°C° 0 mm 1 mps 728 mmHg 89%
    05:00 +23°C° 0 mm 1 mps 728 mmHg 88%
    06:00 +23°C° 0 mm 1 mps 728 mmHg 88%
    07:00 +25°C° 0 mm 1 mps 729 mmHg 82%
    08:00 +27°C° 0 mm 1 mps 729 mmHg 77%
    09:00 +29°C° 0 mm 1 mps 730 mmHg 71%
    10:00 +29°C° 0 mm 1 mps 729 mmHg 70%
    11:00 +30°C° 0 mm 2 mps 729 mmHg 68%
    12:00 +31°C° 0 mm 2 mps 729 mmHg 66%
    13:00 +30°C° 0.2 mm 2 mps 728 mmHg 69%
    14:00 +30°C° 0.2 mm 2 mps 727 mmHg 72%
    15:00 +29°C° 0.2 mm 2 mps 727 mmHg 75%
    16:00 +28°C° 0.2 mm 2 mps 727 mmHg 81%
    17:00 +27°C° 0.2 mm 1 mps 727 mmHg 86%
    18:00 +26°C° 0.2 mm 1 mps 728 mmHg 91%
    19:00 +25°C° 0.2 mm 1 mps 728 mmHg 91%
    20:00 +25°C° 0.2 mm 1 mps 729 mmHg 91%
    21:00 +24°C° 0.2 mm 1 mps 729 mmHg 91%
    22:00 +24°C° 0 mm 1 mps 729 mmHg 90%
    23:00 +24°C° 0 mm 1 mps 729 mmHg 89%

    23 November, Saturday

    Time Temperature Precipitation Wind Pressure Humidity
    00:00 +24°C° 0 mm 1 mps 729 mmHg 88%
    01:00 +23°C° 0 mm 1 mps 728 mmHg 87%
    02:00 +23°C° 0 mm 1 mps 728 mmHg 85%
    03:00 +23°C° 0 mm 1 mps 728 mmHg 83%
    04:00 +23°C° 0 mm 1 mps 728 mmHg 80%
    05:00 +23°C° 0 mm 1 mps 728 mmHg 78%
    06:00 +23°C° 0 mm 1 mps 728 mmHg 75%
    07:00 +25°C° 0 mm 1 mps 729 mmHg 71%
    08:00 +27°C° 0 mm 1 mps 729 mmHg 68%
    09:00 +29°C° 0 mm 1 mps 729 mmHg 64%
    10:00 +29°C° 0 mm 1 mps 729 mmHg 64%
    11:00 +30°C° 0 mm 2 mps 729 mmHg 63%
    12:00 +31°C° 0 mm 2 mps 729 mmHg 63%
    13:00 +30°C° 0.2 mm 2 mps 728 mmHg 67%
    14:00 +30°C° 0.2 mm 2 mps 727 mmHg 71%
    15:00 +29°C° 0.2 mm 2 mps 727 mmHg 75%
    16:00 +28°C° 0.2 mm 1 mps 727 mmHg 80%
    17:00 +27°C° 0.2 mm 1 mps 727 mmHg 86%
    18:00 +26°C° 0.2 mm 1 mps 728 mmHg 91%
    19:00 +25°C° 0.4 mm 1 mps 728 mmHg 91%
    20:00 +25°C° 0.4 mm 1 mps 729 mmHg 91%
    21:00 +24°C° 0.4 mm 1 mps 729 mmHg 91%
    22:00 +24°C° 0 mm 1 mps 729 mmHg 90%
    23:00 +24°C° 0 mm 1 mps 729 mmHg 89%
    Show more